Location: *
(53.9002°N, 27.5624°E)
Time: 20:51:36
(UTC+00:00)

Cosmos 1464 Rocket - Pass Details

Date: 12 November 2019
Orbit: 951 x 1002 km, 82.9° (Epoch: 11 December)

Event Time Altitude Azimuth Distance (km) Brightness Sun altitude
Rises 16:21:04 0° 349° (NNW) 3,678 7.1 -18.2°
Reaches altitude 10° 16:23:36 10° 350° (N) 2,720 6.4 -18.6°
Maximum altitude 16:29:51 84° 80° (E) 973 3.9 -19.5°
Drops below altitude 10° 16:35:59 10° 168° (SSE) 2,677 6.2 -20.4°
Sets 16:38:27 0° 169° (S) 3,616 6.9 -20.8°
